TimeMST,TemperatureF,Dew PointF,Humidity,Sea Level PressureIn,VisibilityMPH,Wind Direction,Wind SpeedMPH,Gust SpeedMPH,PrecipitationIn,Events,Conditions,WindDirDegrees,DateUTC
12:55 AM,24.1,21.9,91,29.82,10.0,Calm,Calm,-,N/A,,Clear,0,2013-01-27 07:55:00
1:55 AM,24.1,21.9,91,29.80,10.0,Calm,Calm,-,N/A,,Clear,0,2013-01-27 08:55:00
2:55 AM,25.0,21.9,88,29.77,10.0,Calm,Calm,-,N/A,,Clear,0,2013-01-27 09:55:00
3:55 AM,23.0,21.0,92,29.77,10.0,South,3.5,-,N/A,,Clear,180,2013-01-27 10:55:00
4:55 AM,24.1,21.0,88,29.78,10.0,East,5.8,-,N/A,,Clear,90,2013-01-27 11:55:00
5:55 AM,23.0,19.9,88,29.79,10.0,East,4.6,-,N/A,,Clear,80,2013-01-27 12:55:00
6:55 AM,23.0,19.9,88,29.77,10.0,East,6.9,-,N/A,,Overcast,80,2013-01-27 13:55:00
7:55 AM,24.1,21.0,88,29.77,10.0,Calm,Calm,-,N/A,,Clear,0,2013-01-27 14:55:00
8:55 AM,26.1,23.0,88,29.77,10.0,Calm,Calm,-,N/A,,Mostly Cloudy,0,2013-01-27 15:55:00
9:55 AM,28.0,23.0,81,29.77,10.0,Calm,Calm,-,N/A,,Clear,0,2013-01-27 16:55:00
10:55 AM,33.1,26.1,75,29.75,10.0,Calm,Calm,-,N/A,,Overcast,0,2013-01-27 17:55:00
11:55 AM,36.0,27.0,70,29.72,10.0,East,3.5,-,N/A,,Clear,100,2013-01-27 18:55:00
12:55 PM,37.0,28.0,70,29.70,10.0,Calm,Calm,-,N/A,,Overcast,0,2013-01-27 19:55:00
1:55 PM,39.0,28.9,67,29.70,10.0,Calm,Calm,-,N/A,,Overcast,0,2013-01-27 20:55:00
2:55 PM,39.9,28.9,65,29.71,10.0,NNW,4.6,-,N/A,,Overcast,330,2013-01-27 21:55:00
3:55 PM,41.0,30.0,65,29.72,10.0,Calm,Calm,-,N/A,,Overcast,0,2013-01-27 22:55:00
4:55 PM,36.0,28.0,73,29.75,10.0,Calm,Calm,-,N/A,,Clear,0,2013-01-27 23:55:00
5:55 PM,32.0,26.1,79,29.77,10.0,North,4.6,-,N/A,,Clear,10,2013-01-28 00:55:00
6:55 PM,30.0,25.0,82,29.79,10.0,Calm,Calm,-,N/A,,Clear,0,2013-01-28 01:55:00
7:55 PM,28.0,25.0,88,29.81,10.0,WSW,3.5,-,N/A,,Clear,240,2013-01-28 02:55:00
8:55 PM,26.1,24.1,92,29.81,10.0,WNW,4.6,-,N/A,,Clear,290,2013-01-28 03:55:00
9:55 PM,28.0,26.1,92,29.80,10.0,WSW,6.9,-,N/A,,Clear,240,2013-01-28 04:55:00
10:55 PM,28.9,27.0,92,29.81,10.0,West,6.9,-,N/A,,Clear,260,2013-01-28 05:55:00
11:55 PM,28.0,26.1,92,29.81,10.0,WNW,3.5,-,N/A,,Scattered Clouds,300,2013-01-28 06:55:00